Weather History for KMTO - December, 2012

Change the Weather History Date:

Wednesday, December 5, 2012

  Actual Average Record
Temperature  
Mean Temperature 40 °F 35 °F  
Max Temperature 48 °F 42 °F 67 °F (1956)
Min Temperature 32 °F 28 °F 10 °F (2005)
Degree Days  
Heating Degree Days 25 30  
Month to date heating degree days 58 148  
Since 1 July heating degree days 1223 1207  
Cooling Degree Days 0 0  
Month to date cooling degree days 0 0  
Year to date cooling degree days 1382 1057  
Moisture  
Dew Point 32 °F    
Average Humidity 76    
Maximum Humidity 96    
Minimum Humidity 56    
Precipitation  
Precipitation 0.00 in 0.10 in 1.06 in (1977)
Month to date precipitation 0.07 0.46  
Year to date precipitation 30.71 35.74  
Sea Level Pressure  
Sea Level Pressure 30.31 in    
Wind  
Wind Speed 7 mph (NE)    
Max Wind Speed 14 mph    
Max Gust Speed 18 mph    
Visibility 10 miles    
Events      
T = Trace of Precipitation, MM = Missing Value Source: NWS Daily Summary

Daily Weather History Graph

Daily Weather History Graph

Search for Another Location

Airport or City:

Trip Planner

Search our weather history database for the weather conditions in past years. The results will help you decide how hot, cold, wet, or windy it might be!

Date:

Astronomy

Dec. 05, 2012 Rise Set
Actual Time 6:58 AM CST 4:29 PM CST
Civil Twilight 6:28 AM CST 4:59 PM CST
Nautical Twilight 5:55 AM CST 5:32 PM CST
Astronomical Twilight 5:22 AM CST 6:05 PM CST
Moon 11:17 PM CST (12/5) 11:23 AM CST (12/5)
Length of Visible Light 10h 30m
Length of Day
9h 30m
Waning Gibbous, 59% of the Moon is Illuminated
Dec 5
Waning Gibbous
Dec 6
Last Quarter
Dec 13
New
Dec 19
First Quarter
Dec 28
Full

Hourly Weather History & Observations

Time (CST) Temp. Windchill Dew Point Humidity Pressure Visibility Wind Dir Wind Speed Gust Speed Precip Events Conditions
12:53 AM 43.0 °F 38.8 °F 36.0 °F 76% 30.29 in 10.0 mi West 6.9 mph - N/A   Clear
1:53 AM 39.0 °F 34.0 °F 35.1 °F 86% 30.30 in 10.0 mi WNW 6.9 mph - N/A   Clear
2:53 AM 35.1 °F 30.1 °F 33.1 °F 92% 30.33 in 10.0 mi NW 5.8 mph - N/A   Clear
3:53 AM 34.0 °F 28.0 °F 32.0 °F 92% 30.34 in 10.0 mi NNW 6.9 mph - N/A   Clear
4:53 AM 34.0 °F 31.0 °F 30.9 °F 89% 30.34 in 10.0 mi NNW 3.5 mph - N/A   Clear
5:53 AM 33.1 °F 27.7 °F 28.9 °F 85% 30.34 in 10.0 mi North 5.8 mph - N/A   Clear
6:53 AM 32.0 °F 26.4 °F 30.0 °F 92% 30.37 in 10.0 mi NNE 5.8 mph - N/A   Clear
8:53 AM 37.9 °F 30.9 °F 33.1 °F 83% 30.40 in 10.0 mi NE 10.4 mph - N/A   Clear
9:53 AM 42.1 °F 36.1 °F 35.1 °F 76% 30.41 in 10.0 mi ENE 10.4 mph - N/A   Clear
10:53 AM 44.1 °F 39.0 °F 34.0 °F 68% 30.39 in 10.0 mi ENE 9.2 mph - N/A   Clear
11:53 AM 46.0 °F 41.4 °F 34.0 °F 63% 30.36 in 10.0 mi NE 9.2 mph - N/A   Clear
12:53 PM 48.0 °F - 33.1 °F 56% 30.34 in 10.0 mi NE 6.9 mph - N/A   Clear
1:53 PM 48.0 °F - 33.1 °F 56% 30.32 in 10.0 mi ENE 8.1 mph - N/A   Clear
2:53 PM 46.9 °F - 32.0 °F 56% 30.30 in 10.0 mi East 8.1 mph - N/A   Clear
3:53 PM 44.1 °F 40.1 °F 32.0 °F 63% 30.30 in 10.0 mi East 6.9 mph - N/A   Clear
4:53 PM 39.0 °F 34.8 °F 32.0 °F 76% 30.30 in 10.0 mi ENE 5.8 mph - N/A   Clear
5:53 PM 37.9 °F 33.5 °F 30.9 °F 76% 30.30 in 10.0 mi ENE 5.8 mph - N/A   Clear
6:53 PM 36.0 °F 31.1 °F 30.9 °F 82% 30.29 in 10.0 mi ENE 5.8 mph - N/A   Clear
7:53 PM 35.1 °F 32.2 °F 30.0 °F 82% 30.28 in 10.0 mi East 3.5 mph - N/A   Clear
8:53 PM 35.1 °F 31.0 °F 30.0 °F 82% 30.26 in 10.0 mi East 4.6 mph - N/A   Clear
9:53 PM 35.1 °F 29.3 °F 30.0 °F 82% 30.24 in 10.0 mi ESE 6.9 mph - N/A   Clear
10:53 PM 37.0 °F 29.8 °F 30.9 °F 79% 30.22 in 10.0 mi SE 10.4 mph - N/A   Clear
11:53 PM 36.0 °F 27.1 °F 30.9 °F 82% 30.19 in 10.0 mi SE 13.8 mph - N/A   Clear